Red Wing, WI

9:07 PM CDT on October 18, 2019 (GMT -0500)
Red Wing Municipal

Weather History for KRGK - September, 2019

Change the Weather History Date:

Tuesday, September 17, 2019

  Actual Average Record
Temperature  
Mean Temperature 78 °F -  
Max Temperature 87 °F 69 °F 87 °F (2007)
Min Temperature 69 °F 48 °F 42 °F (1996)
Cooling Degree Days 13    
Growing Degree Days 28 (Base 50)    
Moisture  
Dew Point 57 °F    
Average Humidity 51    
Maximum Humidity 69    
Minimum Humidity 33    
Precipitation  
Precipitation 0.00 in - - ()
Sea Level Pressure  
Sea Level Pressure 29.99 in    
Wind  
Wind Speed 8 mph (SE)    
Max Wind Speed 17 mph    
Max Gust Speed 22 mph    
Visibility 10 miles    
Events      
Averages and records for this station are not official NWS values.
T = Trace of Precipitation, MM = Missing Value Source: NWS Daily Summary

Daily Weather History Graph

Daily Weather History Graph

Search for Another Location

Airport or City:

Astronomy

Sep. 17, 2019 Rise Set
Actual Time 6:50 AM CDT 7:17 PM CDT
Civil Twilight 6:21 AM CDT 7:46 PM CDT
Nautical Twilight 5:47 AM CDT 8:20 PM CDT
Astronomical Twilight 5:11 AM CDT 8:56 PM CDT
Moon 9:13 PM CDT (9/17) 10:02 AM CDT (9/17)
Length of Visible Light 13h 24m
Length of Day
12h 26m
Waning Gibbous, 89% of the Moon is Illuminated
Sep 17
Waning Gibbous
Sep 21
Last Quarter
Sep 28
New
Oct 5
First Quarter
Oct 13
Full

Hourly Weather History & Observations

Time (CDT) Temp. Heat Index Dew Point Humidity Pressure Visibility Wind Dir Wind Speed Gust Speed Precip Events Conditions
12:15 AM 73.4 °F - 59.0 °F 61% 30.01 in 10.0 mi ESE 5.8 mph - N/A   Clear
12:16 AM 73.4 °F - 59.0 °F 61% 30.01 in 10.0 mi ESE 5.8 mph - N/A   Clear
12:35 AM 73.4 °F - 59.0 °F 61% 30.01 in 10.0 mi ESE 8.1 mph - N/A   Clear
12:36 AM 73.4 °F - 59.0 °F 61% 30.01 in 10.0 mi ESE 6.9 mph - N/A   Clear
12:59 AM 71.6 °F - 59.0 °F 64% 30.01 in 10.0 mi SE 6.9 mph - N/A   Clear
1:16 AM 71.6 °F - 59.0 °F 64% 30.01 in 10.0 mi SE 8.1 mph - N/A   Clear
1:35 AM 71.6 °F - 59.0 °F 64% 30.01 in 10.0 mi SE 5.8 mph - N/A   Clear
1:36 AM 71.6 °F - 59.0 °F 64% 30.01 in 10.0 mi ESE 5.8 mph - N/A   Clear
1:55 AM 71.6 °F - 59.0 °F 64% 30.01 in 10.0 mi SE 6.9 mph - N/A   Clear
2:15 AM 71.6 °F - 59.0 °F 64% 30.01 in 10.0 mi SE 6.9 mph - N/A   Clear
2:20 AM 71.6 °F - 59.0 °F 64% 30.01 in 10.0 mi ESE 6.9 mph - N/A   Clear
2:38 AM 71.6 °F - 59.0 °F 64% 30.01 in 10.0 mi SE 6.9 mph - N/A   Clear
2:55 AM 71.6 °F - 59.0 °F 64% 30.01 in 10.0 mi SE 8.1 mph - N/A   Clear
3:15 AM 71.6 °F - 59.0 °F 64% 30.01 in 10.0 mi ESE 5.8 mph - N/A   Clear
3:16 AM 71.6 °F - 59.0 °F 64% 30.01 in 10.0 mi ESE 5.8 mph - N/A   Clear
3:35 AM 71.6 °F - 59.0 °F 64% 30.02 in 10.0 mi ESE 5.8 mph - N/A   Clear
3:36 AM 71.6 °F - 59.0 °F 64% 30.02 in 10.0 mi ESE 5.8 mph - N/A   Clear
3:59 AM 71.6 °F - 59.0 °F 64% 30.02 in 10.0 mi SE 6.9 mph - N/A   Clear
4:16 AM 71.6 °F - 59.0 °F 64% 30.02 in 10.0 mi ESE 6.9 mph - N/A   Clear
4:36 AM 71.6 °F - 57.2 °F 60% 30.02 in 10.0 mi SE 6.9 mph - N/A   Clear
4:55 AM 71.6 °F - 57.2 °F 60% 30.02 in 10.0 mi SE 8.1 mph - N/A   Clear
5:15 AM 71.6 °F - 55.4 °F 57% 30.02 in 10.0 mi SE 8.1 mph - N/A   Clear
5:19 AM 71.6 °F - 55.4 °F 57% 30.02 in 10.0 mi SE 6.9 mph - N/A   Clear
5:37 AM 71.6 °F - 55.4 °F 57% 30.02 in 10.0 mi SE 8.1 mph - N/A   Clear
5:56 AM 69.8 °F - 53.6 °F 56% 30.03 in 10.0 mi SE 6.9 mph - N/A   Clear
6:15 AM 69.8 °F - 53.6 °F 56% 30.03 in 10.0 mi ESE 6.9 mph - N/A   Clear
6:16 AM 69.8 °F - 53.6 °F 56% 30.03 in 10.0 mi ESE 6.9 mph - N/A   Clear
6:36 AM 69.8 °F - 53.6 °F 56% 30.04 in 10.0 mi ESE 8.1 mph - N/A   Clear
6:59 AM 69.8 °F - 53.6 °F 56% 30.04 in 10.0 mi SE 9.2 mph - N/A   Clear
7:16 AM 69.8 °F - 53.6 °F 56% 30.05 in 10.0 mi ESE 8.1 mph - N/A   Clear
7:36 AM 69.8 °F - 53.6 °F 56% 30.05 in 10.0 mi ESE 6.9 mph - N/A   Clear
7:55 AM 69.8 °F - 53.6 °F 56% 30.05 in 10.0 mi SE 8.1 mph 16.1 mph N/A   Clear
7:56 AM 69.8 °F - 53.6 °F 56% 30.05 in 10.0 mi SE 8.1 mph - N/A   Clear
8:15 AM 71.6 °F - 53.6 °F 53% 30.05 in 10.0 mi SE 8.1 mph - N/A   Clear
8:37 AM 71.6 °F - 53.6 °F 53% 30.04 in 10.0 mi ESE 9.2 mph - N/A   Clear
8:56 AM 73.4 °F - 53.6 °F 50% 30.04 in 10.0 mi SE 8.1 mph - N/A   Clear
9:15 AM 73.4 °F - 53.6 °F 50% 30.04 in 10.0 mi SE 8.1 mph - N/A   Clear
9:16 AM 73.4 °F - 53.6 °F 50% 30.04 in 10.0 mi SE 8.1 mph - N/A   Clear
9:35 AM 73.4 °F - 53.6 °F 50% 30.03 in 10.0 mi SE 6.9 mph - N/A   Clear
9:36 AM 73.4 °F - 53.6 °F 50% 30.03 in 10.0 mi SE 8.1 mph - N/A   Clear
9:59 AM 75.2 °F - 53.6 °F 47% 30.03 in 10.0 mi SE 10.4 mph 16.1 mph N/A   Clear
10:16 AM 75.2 °F - 53.6 °F 47% 30.03 in 10.0 mi SE 9.2 mph - N/A   Clear
10:36 AM 77.0 °F - 53.6 °F 44% 30.02 in 10.0 mi SE 9.2 mph - N/A   Clear
10:55 AM 78.8 °F - 53.6 °F 42% 30.02 in 10.0 mi SSE 8.1 mph - N/A   Clear
10:56 AM 78.8 °F - 53.6 °F 42% 30.02 in 10.0 mi SSE 10.4 mph - N/A   Clear
11:15 AM 80.6 °F 80.3 °F 53.6 °F 39% 30.01 in 10.0 mi SE 11.5 mph - N/A   Clear
11:19 AM 80.6 °F 80.3 °F 53.6 °F 39% 30.01 in 10.0 mi SSE 11.5 mph - N/A   Clear
11:37 AM 78.8 °F - 55.4 °F 44% 30.01 in 10.0 mi SSE 8.1 mph - N/A   Clear
11:56 AM 80.6 °F 80.5 °F 55.4 °F 42% 30.01 in 10.0 mi SSE 9.2 mph - N/A   Clear
12:15 PM 80.6 °F 80.5 °F 55.4 °F 42% 30.00 in 10.0 mi SE 9.2 mph - N/A   Clear
12:16 PM 80.6 °F 80.5 °F 55.4 °F 42% 30.00 in 10.0 mi SE 10.4 mph - N/A   Clear
12:35 PM 82.4 °F 81.7 °F 55.4 °F 39% 30.00 in 10.0 mi SSE 12.7 mph - N/A   Clear
12:36 PM 82.4 °F 81.7 °F 55.4 °F 39% 30.00 in 10.0 mi SSE 10.4 mph - N/A   Clear
12:58 PM 84.2 °F 83.0 °F 55.4 °F 37% 29.99 in 10.0 mi SE 9.2 mph - N/A   Clear
1:16 PM 82.4 °F 82.0 °F 57.2 °F 42% 29.98 in 10.0 mi SSE 11.5 mph - N/A   Clear
1:36 PM 84.2 °F 83.5 °F 57.2 °F 40% 29.97 in 10.0 mi SSE 11.5 mph 16.1 mph N/A   Clear
1:55 PM 86.0 °F 84.9 °F 57.2 °F 37% 29.96 in 10.0 mi SSE 12.7 mph 17.3 mph N/A   Clear
1:56 PM 86.0 °F 84.9 °F 57.2 °F 37% 29.96 in 10.0 mi SSE 10.4 mph 17.3 mph N/A   Clear
2:15 PM 87.8 °F 86.5 °F 57.2 °F 35% 29.96 in 10.0 mi South 15.0 mph 20.7 mph N/A   Clear
2:19 PM 87.8 °F 86.5 °F 57.2 °F 35% 29.96 in 10.0 mi SSE 12.7 mph 20.7 mph N/A   Clear
2:38 PM 86.0 °F 84.5 °F 55.4 °F 35% 29.96 in 10.0 mi South 17.3 mph - N/A   Clear
2:55 PM 86.0 °F 84.5 °F 55.4 °F 35% 29.95 in 10.0 mi South 12.7 mph 19.6 mph N/A   Clear
3:15 PM 86.0 °F 84.9 °F 57.2 °F 37% 29.94 in 10.0 mi SSE 10.4 mph 17.3 mph N/A   Clear
3:16 PM 86.0 °F 84.9 °F 57.2 °F 37% 29.94 in 10.0 mi South 9.2 mph 17.3 mph N/A   Clear
3:35 PM 87.8 °F 86.5 °F 57.2 °F 35% 29.94 in 10.0 mi South 13.8 mph 19.6 mph N/A   Clear
3:36 PM 87.8 °F 86.5 °F 57.2 °F 35% 29.94 in 10.0 mi South 11.5 mph 19.6 mph N/A   Clear
3:58 PM 87.8 °F 86.5 °F 57.2 °F 35% 29.94 in 10.0 mi SSE 8.1 mph 16.1 mph N/A   Clear
4:16 PM 87.8 °F 86.1 °F 55.4 °F 33% 29.94 in 10.0 mi SSE 10.4 mph 19.6 mph N/A   Clear
4:35 PM 87.8 °F 86.1 °F 55.4 °F 33% 29.93 in 10.0 mi South 11.5 mph 17.3 mph N/A   Clear
4:55 PM 87.8 °F 86.1 °F 55.4 °F 33% 29.93 in 10.0 mi South 9.2 mph 21.9 mph N/A   Clear
4:56 PM 87.8 °F 86.1 °F 55.4 °F 33% 29.93 in 10.0 mi SSE 9.2 mph - N/A   Clear
5:15 PM 86.0 °F 84.9 °F 57.2 °F 37% 29.93 in 10.0 mi SSE 10.4 mph - N/A   Clear
5:20 PM 86.0 °F 84.9 °F 57.2 °F 37% 29.93 in 10.0 mi SSE 11.5 mph 18.4 mph N/A   Clear
5:37 PM 84.2 °F 83.5 °F 57.2 °F 40% 29.93 in 10.0 mi SSE 12.7 mph 17.3 mph N/A   Clear
5:55 PM 84.2 °F 83.5 °F 57.2 °F 40% 29.93 in 10.0 mi SSE 11.5 mph 17.3 mph N/A   Clear
6:15 PM 84.2 °F 83.5 °F 57.2 °F 40% 29.93 in 10.0 mi SSE 6.9 mph - N/A   Clear
6:16 PM 84.2 °F 83.5 °F 57.2 °F 40% 29.93 in 10.0 mi SSE 8.1 mph - N/A   Clear
6:35 PM 82.4 °F 82.0 °F 57.2 °F 42% 29.93 in 10.0 mi SE 11.5 mph 17.3 mph N/A   Clear
6:36 PM 82.4 °F 82.0 °F 57.2 °F 42% 29.93 in 10.0 mi SE 13.8 mph 17.3 mph N/A   Clear
6:58 PM 80.6 °F 81.1 °F 59.0 °F 48% 29.93 in 10.0 mi SE 9.2 mph - N/A   Clear
7:16 PM 80.6 °F 81.1 °F 59.0 °F 48% 29.93 in 10.0 mi SE 10.4 mph 16.1 mph N/A   Clear
7:35 PM 78.8 °F - 60.8 °F 54% 29.93 in 10.0 mi SSE 9.2 mph 18.4 mph N/A   Clear
7:36 PM 78.8 °F - 60.8 °F 54% 29.93 in 10.0 mi SSE 10.4 mph 18.4 mph N/A   Clear
7:55 PM 78.8 °F - 60.8 °F 54% 29.93 in 10.0 mi SE 11.5 mph - N/A   Clear
7:56 PM 78.8 °F - 62.6 °F 57% 29.93 in 10.0 mi SE 11.5 mph - N/A   Clear
8:15 PM 78.8 °F - 60.8 °F 54% 29.94 in 10.0 mi SSE 11.5 mph 19.6 mph N/A   Clear
8:19 PM 78.8 °F - 60.8 °F 54% 29.94 in 10.0 mi SE 8.1 mph 19.6 mph N/A   Clear
8:38 PM 77.0 °F - 60.8 °F 57% 29.95 in 10.0 mi SSE 10.4 mph 20.7 mph N/A   Clear
8:56 PM 75.2 °F - 60.8 °F 61% 29.96 in 10.0 mi SSE 9.2 mph 19.6 mph N/A   Clear
9:15 PM 75.2 °F - 59.0 °F 57% 29.95 in 10.0 mi SE 10.4 mph - N/A   Clear
9:16 PM 75.2 °F - 59.0 °F 57% 29.96 in 10.0 mi SE 11.5 mph - N/A   Clear
9:35 PM 73.4 °F - 57.2 °F 57% 29.95 in 10.0 mi SE 11.5 mph 19.6 mph N/A   Clear
9:36 PM 73.4 °F - 57.2 °F 57% 29.95 in 10.0 mi SE 11.5 mph 19.6 mph N/A   Clear
9:59 PM 73.4 °F - 57.2 °F 57% 29.96 in 10.0 mi SSE 15.0 mph 18.4 mph N/A   Clear
10:16 PM 73.4 °F - 55.4 °F 53% 29.96 in 10.0 mi SE 11.5 mph - N/A   Clear
10:36 PM 73.4 °F - 57.2 °F 57% 29.96 in 10.0 mi SSE 11.5 mph - N/A   Clear
10:55 PM 71.6 °F - 57.2 °F 60% 29.96 in 10.0 mi SE 10.4 mph - N/A   Clear
10:56 PM 71.6 °F - 57.2 °F 60% 29.96 in 10.0 mi SSE 12.7 mph - N/A   Clear
11:15 PM 71.6 °F - 59.0 °F 64% 29.95 in 10.0 mi SE 10.4 mph 16.1 mph N/A   Clear
11:37 PM 71.6 °F - 60.8 °F 69% 29.95 in 10.0 mi SE 11.5 mph - N/A   Clear
11:55 PM 71.6 °F - 60.8 °F 69% 29.95 in 10.0 mi SSE 11.5 mph 16.1 mph N/A   Clear